Погода в Цзиси

Китай     45°17′43″N   130°58′17″E
темп.,
°C
ветер,
м/с
пор.,
м/с
влажн.,
%
обл.,
%
осадки,
мм/ч
давл.,
гПа
погр.,
м
27 февраля, сб
сб2723:00−17зюз118231 0.0 103620
02:00−17ююз018349 0.0 103520
05:00−18юв118332 0.0 103520
08:00−14в228017 0.0 1034135
11:00−7в237688 0.0 1030363
14:00−2всв127594 0.0 1025305
17:00−7всв1286100 0.0 102321
20:00−9ю118393 0.0 102424
28 февраля, вс
вс2823:00−5юз3772100 0.0 1022142
02:00−1зюз41266100 0.0 1022249
05:00−2зюз51669100 0.0 1023500
08:000з51477100 0.0 10231011
11:00+2зюз61188100 0.0 10231062
14:00+1зсз4884100 0.0 1023834
17:00−4ссз3896100 1.0 1025421
20:00−6ссз3895100 2.9 1028550
1 марта, пн
пн123:00−8ссз2695100 1.2 1030437
02:00−12сз238997 1.3 103347
05:00−16с129342 0.0 103420
08:00−14в118272 0.0 1036230
11:00−11в117793 0.0 1035710
14:00−10вюв026896 0.1 1033848
17:00−13в2283100 0.0 103327
20:00−15всв1193100 0.1 103437
2 марта, вт
вт223:00−18ссв119441 0.0 103320
02:00−17з119470 0.0 103320
05:00−20зсз229218 0.0 103320
08:00−17зсз23829 0.0 1033250
11:00−12с33630 0.0 1032901
14:00−11с23571 0.0 10301009
17:00−15вюв22800 0.0 103120
20:00−18юв11870 0.0 103220
3 марта, ср
ср323:00−19вюв11880 0.0 103120
02:00−20в11890 0.0 102920
05:00−20в119033 0.0 102820
08:00−16всв228567 0.0 1026153
11:00−9св1277100 0.0 1021297
14:00−4ю3987100 0.6 1017792
17:00−4ю3780100 0.2 1015193
20:00−5юз388097 0.2 1014186